QPF
0.00 0.00 0.00 0.00 0.00 0.00 0.00 0.00 0.00 0.00 0.00 0.00 0.00 0.00 0.01 0.01 0.00 0.02 0.16 0.40 0.25 0.20 0.18 0.04 0.10 0.08 0.02 0.00 0.00 0.00 0.00 0.00
0.00 0.00 0.00 0.00 0.00 0.00 0.00 0.00 0.00 0.00 0.00 0.00 0.00 0.00 0.01 0.01 0.01 0.02 0.07 0.36 0.33 0.12 0.05 0.04 0.04 0.02 0.00 0.00 0.00 0.00 0.00 0.00
0.00 0.00 0.00 0.00 0.00 0.00 0.00 0.00 0.00 0.00 0.00 0.00 0.00 0.00 0.00 0.00 0.00 0.02 0.13 0.22 0.18 0.10 0.01 0.01 0.00 0.00 0.00 0.00 0.00 0.00 0.00 0.00
0.00 0.00 0.00 0.00 0.00 0.00 0.00 0.00 0.00 0.00 0.00 0.00 0.00 0.00 0.00 0.00 0.00 0.01 0.06 0.10 0.12 0.14 0.03 0.01 0.00 0.00 0.00 0.00 0.00 0.00 0.00 0.00
0.00 0.00 0.00 0.00 0.00 0.00 0.00 0.00 0.00 0.00 0.00 0.00 0.00 0.00 0.00 0.00 0.00 0.00 0.02 0.05 0.10 0.15 0.08 0.04 0.01 0.00 0.00 0.00 0.00 0.00 0.00 0.00
0.00 0.00 0.00 0.00 0.00 0.00 0.00 0.00 0.00 0.00 0.00 0.00 0.00 0.00 0.00 0.00 0.00 0.00 0.01 0.01 0.13 0.17 0.21 0.11 0.07 0.02 0.01 0.00 0.00 0.00 0.00 0.00
0.00 0.00 0.00 0.00 0.00 0.00 0.00 0.00 0.00 0.00 0.00 0.00 0.00 0.00 0.00 0.00 0.00 0.00 0.00 0.02 0.02 0.10 0.25 0.21 0.11 0.07 0.04 0.02 0.00 0.00 0.00 0.00
0.00 0.00 0.00 0.00 0.00 0.00 0.00 0.00 0.00 0.00 0.00 0.00 0.00 0.00 0.00 0.00 0.00 0.00 0.00 0.01 0.01 0.00 0.04 0.14 0.12 0.07 0.03 0.03 0.01 0.00 0.00 0.00
0.00 0.00 0.00 0.00 0.00 0.00 0.00 0.00 0.00 0.00 0.00 0.00 0.00 0.00 0.00 0.00 0.00 0.00 0.00 0.00 0.01 0.02 0.01 0.04 0.06 0.02 0.01 0.01 0.00 0.00 0.00 0.00
0.00 0.00 0.00 0.00 0.00 0.00 0.00 0.00 0.00 0.00 0.00 0.00 0.00 0.00 0.00 0.00 0.00 0.00 0.00 0.00 0.00 0.02 0.02 0.02 0.04 0.03 0.01 0.01 0.00 0.00 0.00 0.00
0.00 0.00 0.00 0.00 0.00 0.00 0.00 0.00 0.00 0.00 0.00 0.00 0.00 0.00 0.00 0.00 0.00 0.00 0.00 0.00 0.00 0.00 0.02 0.03 0.01 0.01 0.00 0.01 0.00 0.00 0.00 0.00
0.00 0.00 0.00 0.00 0.00 0.00 0.01 0.00 0.00 0.00 0.00 0.00 0.00 0.00 0.00 0.00 0.00 0.00 0.00 0.00 0.00 0.00 0.00 0.00 0.00 0.00 0.00 0.00 0.00 0.00 0.00 0.00
0.01 0.00 0.00 0.00 0.00 0.01 0.01 0.00 0.01 0.01 0.00 0.00 0.00 0.00 0.00 0.00 0.00 0.00 0.00 0.00 0.00 0.00 0.00 0.00 0.00 0.00 0.00 0.00 0.00 0.00 0.00 0.00
0.10 0.02 0.02 0.02 0.02 0.01 0.01 0.01 0.01 0.01 0.01 0.00 0.00 0.00 0.00 0.00 0.00 0.00 0.00 0.00 0.00 0.00 0.00 0.00 0.00 0.00 0.00 0.00 0.00 0.00 0.00 0.00
0.11 0.06 0.03 0.03 0.04 0.05 0.04 0.05 0.06 0.05 0.08 0.10 0.04 0.01 0.01 0.00 0.00 0.00 0.00 0.00 0.00 0.00 0.00 0.00 0.00 0.00 0.00 0.00 0.00 0.00 0.00 0.00
0.23 0.12 0.07 0.07 0.06 0.05 0.05 0.09 0.11 0.08 0.09 0.10 0.07 0.02 0.01 0.01 0.00 0.00 0.00 0.00 0.00 0.00 0.00 0.00 0.00 0.00 0.00 0.00 0.00 0.00 0.00 0.00
0.22 0.09 0.07 0.08 0.07 0.06 0.05 0.06 0.07 0.06 0.05 0.06 0.06 0.04 0.01 0.01 0.00 0.00 0.00 0.00 0.00 0.00 0.00 0.00 0.00 0.00 0.00 0.00 0.00 0.00 0.00 0.00
0.06 0.00 0.00 0.00 0.01 0.01 0.04 0.06 0.12 0.13 0.14 0.06 0.04 0.03 0.02 0.01 0.01 0.01 0.02 0.02 0.03 0.03 0.03 0.03 0.02 0.04 0.05 0.02 0.02 0.01 0.00 0.00
0.31 0.19 0.06 0.00 0.01 0.02 0.02 0.04 0.07 0.18 0.13 0.04 0.04 0.05 0.02 0.01 0.00 0.00 0.01 0.01 0.02 0.02 0.03 0.04 0.04 0.09 0.07 0.02 0.01 0.00 0.00 0.01
MSLP
1002.90 1003.22 1003.50 1004.07 1004.65 1005.35 1006.19 1007.42 1008.25 1009.03 1009.69 1010.23 1010.70 1010.95 1011.19 1011.18 1011.34 1011.57 1011.88 1012.13 1012.02 1012.44 1013.20 1013.92 1014.88 1016.26 1017.24 1017.92 1018.34 1019.24 1019.78 1020.37
1002.45 1002.59 1002.95 1003.54 1004.11 1004.68 1005.49 1006.70 1007.76 1008.55 1009.44 1010.03 1010.45 1010.52 1010.90 1011.00 1011.14 1011.17 1011.57 1011.95 1011.74 1011.81 1012.69 1013.55 1014.43 1015.74 1016.56 1017.49 1018.27 1019.00 1020.03 1020.43
1001.71 1001.91 1002.41 1002.85 1003.40 1004.09 1005.03 1006.00 1007.09 1007.97 1008.75 1009.33 1009.79 1010.12 1010.62 1010.80 1011.02 1011.06 1011.27 1011.56 1011.93 1012.30 1012.95 1013.79 1014.80 1015.75 1016.61 1017.26 1017.88 1018.82 1019.62 1020.31
1001.13 1001.32 1001.69 1002.36 1002.78 1003.38 1004.15 1005.16 1006.27 1007.38 1008.23 1009.08 1009.61 1009.95 1010.54 1010.66 1010.89 1011.04 1011.15 1011.68 1012.22 1012.62 1013.05 1013.87 1014.76 1015.48 1016.12 1016.87 1017.51 1018.18 1018.96 1019.90
1000.63 1000.82 1001.06 1001.29 1001.90 1003.15 1004.08 1005.08 1005.77 1006.82 1007.72 1008.54 1008.85 1009.12 1009.73 1009.94 1010.38 1010.96 1011.16 1011.64 1012.18 1012.62 1013.09 1013.77 1014.54 1015.26 1015.97 1016.57 1017.26 1017.82 1018.30 1019.16
1000.01 999.98 1000.01 1000.47 1001.53 1002.46 1003.45 1004.59 1005.77 1006.50 1007.23 1007.97 1008.37 1008.89 1009.26 1009.65 1010.23 1010.84 1011.13 1011.56 1011.86 1012.44 1013.06 1013.81 1014.55 1015.23 1016.02 1016.58 1017.17 1017.65 1018.01 1018.50
999.98 999.46 999.98 1000.52 1001.27 1002.04 1002.95 1003.89 1005.04 1006.20 1006.98 1007.52 1007.84 1008.51 1009.08 1009.41 1010.01 1010.61 1011.11 1011.41 1012.03 1012.36 1012.78 1013.93 1014.52 1015.04 1015.68 1016.20 1016.91 1017.37 1017.74 1018.20
1000.25 999.61 999.63 1000.05 1000.86 1001.45 1002.28 1003.22 1004.33 1005.56 1006.62 1007.25 1007.63 1008.34 1008.85 1009.04 1009.60 1010.25 1010.88 1011.41 1011.75 1012.37 1012.87 1013.61 1014.30 1014.65 1015.50 1016.11 1016.84 1017.23 1017.45 1017.57
1000.27 999.55 999.18 999.52 1000.47 1001.28 1001.91 1002.72 1003.59 1004.89 1006.03 1007.02 1007.51 1008.12 1008.39 1008.65 1009.18 1009.89 1010.43 1011.18 1011.57 1012.22 1012.71 1013.29 1013.83 1014.35 1015.28 1016.07 1016.81 1016.97 1017.15 1017.46
1000.14 999.00 998.75 999.20 999.93 1000.93 1001.59 1002.47 1003.30 1004.34 1005.54 1006.58 1007.19 1007.87 1008.07 1008.45 1009.07 1009.61 1010.21 1010.90 1011.44 1011.98 1012.49 1013.00 1013.68 1014.29 1014.98 1015.74 1016.14 1016.47 1016.48 1017.03
1000.18 998.43 998.30 999.11 999.93 1001.08 1002.22 1002.94 1003.53 1004.27 1005.20 1006.17 1006.70 1007.37 1007.99 1008.28 1008.73 1009.39 1010.00 1010.61 1011.22 1011.79 1012.25 1012.62 1013.26 1014.03 1014.71 1015.24 1015.48 1015.64 1016.04 1016.42
1000.90 999.27 998.74 999.76 1000.50 1001.34 1002.49 1003.02 1003.39 1004.19 1004.97 1005.94 1006.40 1006.81 1007.64 1008.09 1008.59 1009.16 1009.82 1010.41 1010.91 1011.29 1011.79 1012.42 1012.90 1013.46 1014.09 1014.63 1014.91 1015.14 1015.61 1015.92
1002.85 1001.12 1000.44 1000.61 1001.27 1001.94 1002.66 1003.03 1003.43 1004.06 1004.75 1005.67 1006.14 1006.53 1007.40 1007.91 1008.30 1008.87 1009.40 1009.90 1010.41 1010.86 1011.36 1011.84 1012.32 1012.73 1013.16 1013.46 1013.86 1014.38 1014.86 1015.14
1004.71 1003.26 1002.85 1002.49 1002.53 1002.99 1003.30 1003.59 1003.90 1004.42 1005.04 1005.92 1006.25 1006.60 1007.20 1007.62 1007.96 1008.51 1009.07 1009.46 1009.96 1010.37 1010.79 1011.26 1011.71 1012.19 1012.62 1013.00 1013.33 1013.67 1013.94 1014.23
1006.35 1005.58 1005.20 1005.40 1003.64 1005.13 1004.46 1004.26 1004.43 1004.88 1005.51 1006.25 1006.56 1006.88 1007.23 1007.48 1007.75 1008.01 1008.52 1009.02 1009.40 1009.94 1010.32 1010.62 1010.95 1011.37 1011.71 1012.08 1012.47 1012.78 1013.08 1013.34
1007.63 1007.64 1007.53 1005.14 1006.90 1006.92 1006.24 1005.86 1005.57 1005.36 1005.97 1006.46 1006.81 1007.14 1007.33 1007.59 1007.81 1008.03 1008.33 1008.64 1009.02 1009.42 1009.83 1010.19 1010.50 1010.80 1011.09 1011.46 1011.78 1012.05 1012.28 1012.48
1009.01 1009.12 1008.28 1009.01 1008.62 1008.28 1008.04 1007.61 1007.36 1007.40 1007.66 1008.03 1008.04 1007.99 1008.17 1008.45 1008.67 1008.43 1008.56 1008.76 1008.89 1009.16 1009.55 1009.81 1010.07 1010.32 1010.69 1011.04 1011.21 1011.23 1011.34 1011.41
1011.25 1010.49 1010.39 1010.42 1010.05 1010.09 1009.40 1009.10 1008.94 1008.94 1009.15 1010.52 1009.57 1009.05 1009.45 1009.69 1009.84 1009.75 1009.69 1009.90 1009.91 1009.99 1010.03 1010.02 1009.94 1011.03 1011.87 1011.52 1011.05 1010.68 1010.59 1010.68
1012.31 1011.87 1012.05 1012.03 1011.84 1011.59 1010.79 1010.54 1009.42 1010.01 1010.96 1012.14 1011.19 1010.57 1010.79 1010.93 1011.08 1010.92 1010.95 1010.89 1010.83 1011.03 1011.59 1011.91 1011.87 1012.60 1012.58 1012.18 1011.58 1010.99 1010.49 1010.11
Thickness
5702 5705 5710 5707 5703 5697 5692 5682 5675 5667 5660 5653 5648 5645 5640 5638 5634 5628 5623 5616 5615 5614 5614 5614 5613 5610 5607 5605 5603 5600 5599 5599
5699 5701 5705 5703 5700 5696 5692 5681 5673 5666 5657 5650 5644 5643 5638 5635 5632 5627 5622 5614 5616 5619 5617 5616 5615 5612 5611 5606 5602 5598 5596 5597
5695 5700 5700 5700 5697 5694 5688 5681 5673 5665 5658 5652 5646 5643 5637 5634 5629 5625 5621 5616 5614 5614 5615 5614 5612 5612 5609 5605 5604 5600 5599 5594
5689 5693 5696 5695 5694 5692 5689 5682 5674 5665 5658 5650 5643 5640 5634 5632 5627 5624 5622 5615 5612 5612 5614 5613 5610 5611 5609 5607 5605 5605 5600 5595
5686 5689 5692 5696 5694 5687 5683 5676 5673 5665 5657 5650 5645 5643 5636 5634 5629 5624 5621 5617 5614 5613 5613 5612 5610 5608 5607 5606 5604 5603 5601 5595
5682 5689 5694 5695 5689 5686 5680 5673 5667 5662 5656 5650 5644 5641 5638 5633 5629 5624 5621 5618 5615 5611 5609 5608 5607 5605 5603 5602 5600 5599 5598 5596
5674 5685 5684 5683 5683 5682 5677 5672 5666 5659 5653 5649 5644 5640 5634 5631 5626 5623 5620 5617 5612 5610 5609 5604 5603 5603 5601 5598 5596 5595 5593 5591
5659 5672 5678 5680 5679 5680 5677 5671 5666 5659 5651 5646 5642 5637 5633 5632 5627 5621 5619 5615 5615 5609 5607 5603 5600 5599 5596 5593 5591 5590 5589 5589
5651 5662 5674 5678 5674 5672 5672 5669 5666 5658 5651 5642 5638 5634 5633 5632 5628 5622 5619 5614 5613 5609 5607 5603 5600 5598 5593 5589 5585 5585 5586 5584
5643 5659 5669 5673 5672 5667 5668 5665 5662 5656 5649 5641 5635 5631 5632 5630 5626 5622 5618 5615 5611 5609 5607 5604 5600 5597 5592 5587 5587 5586 5587 5584
5634 5657 5665 5666 5665 5658 5653 5653 5651 5649 5645 5638 5635 5630 5627 5628 5626 5621 5617 5614 5611 5608 5606 5604 5600 5595 5590 5586 5587 5587 5584 5583
5619 5641 5652 5651 5651 5648 5643 5644 5646 5644 5641 5634 5632 5629 5624 5624 5623 5620 5616 5613 5611 5609 5607 5602 5600 5596 5592 5590 5588 5588 5585 5583
5591 5615 5627 5633 5633 5635 5634 5637 5639 5639 5637 5630 5629 5627 5622 5621 5620 5618 5616 5614 5612 5611 5608 5605 5602 5599 5596 5595 5593 5590 5587 5585
5566 5585 5595 5609 5616 5619 5622 5625 5629 5629 5627 5622 5622 5622 5618 5617 5617 5616 5614 5613 5610 5609 5608 5605 5602 5600 5598 5595 5593 5590 5588 5586
5547 5558 5566 5569 5592 5589 5604 5612 5617 5619 5619 5615 5614 5612 5610 5611 5613 5613 5611 5609 5609 5606 5604 5603 5602 5600 5599 5596 5593 5591 5589 5586
5531 5536 5541 5563 5558 5567 5580 5590 5599 5610 5608 5606 5605 5603 5600 5602 5604 5605 5605 5605 5604 5602 5601 5600 5599 5598 5597 5594 5591 5589 5587 5586
5517 5515 5532 5531 5540 5549 5558 5568 5576 5578 5581 5580 5582 5585 5585 5584 5587 5592 5595 5597 5599 5598 5595 5594 5594 5595 5591 5586 5587 5589 5587 5587
5493 5503 5510 5514 5523 5529 5540 5548 5553 5558 5560 5550 5562 5569 5567 5567 5570 5574 5577 5579 5581 5583 5584 5585 5587 5576 5571 5574 5579 5585 5586 5584
5479 5487 5491 5496 5504 5512 5523 5529 5543 5540 5536 5528 5540 5547 5548 5550 5551 5556 5558 5562 5566 5567 5561 5559 5561 5555 5555 5559 5564 5570 5576 5579